Regional Weather Roundup
Issued by NWS Little Rock, AR

Home | Current Version | Previous Version | Text Only | Print | Product List | Glossary Off
Versions: 1 2 3 4 5 6 7 8 9 10 11 12 13 14 15 16 17 18 19 20 21 22 23 24 25 26 27 28 29 30 31 32 33 34 35 36 37 38 39 40 41 42 43 44 45 46 47 48 49 50

000
ASUS44 KLZK 250205
RWRLZK

WEATHER ROUNDUP FOR ARKANSAS
NATIONAL WEATHER SERVICE LITTLE ROCK AR
800 PM CST MON NOV 24 2014

NOTE: "FAIR" INDICATES FEW OR NO CLOUDS BELOW 12,000 FEET WITH NO
SIGNIFICANT WEATHER AND/OR OBSTRUCTIONS TO VISIBILITY.

ARZ001-003-010-029-250300-
NORTHWEST ARKANSAS

CITY           SKY/WX    TMP DP  RH WIND       PRES   REMARKS
FAYETTEVILLE   CLEAR     43  24  47 NW8       30.05R
FORT SMITH     CLEAR     47  26  44 W7        30.06R
HARRISON       CLEAR     43  24  47 W6        30.01R
BENTONVILLE    CLEAR     39  25  56 W5        30.05R
ROGERS         CLEAR     41  25  53 W8        30.05R
SILOAM SPGS    CLEAR     39  21  48 NW7       30.07R
HIGHFILL       CLEAR     41  25  53 NW6       30.05R
SPRINGDALE     CLEAR     43  25  49 W6        30.06R
$$

ARZ004-005-016-250300-
NORTH CENTRAL ARKANSAS

CITY           SKY/WX    TMP DP  RH WIND       PRES   REMARKS
BATESVILLE     CLEAR     45  28  53 W5        30.01R
FLIPPIN        CLEAR     43  23  45 W3        30.01R
MTN HOME       CLEAR     44  25  47 CALM      30.00R
$$

ARZ040-041-250300-
WEST CENTRAL ARKANSAS

CITY           SKY/WX    TMP DP  RH WIND       PRES   REMARKS
MENA           CLEAR     37  30  75 CALM      30.07R
MOUNT IDA      CLEAR     39  29  67 W3        30.03R
$$

ARZ009-017-025-026-028-250300-
NORTHEAST ARKANSAS

CITY           SKY/WX    TMP DP  RH WIND       PRES   REMARKS
CORNING        FAIR      43  32  65 W6        29.99R
JONESBORO      CLEAR     45  33  63 NW3       29.99R
NEWPORT        CLEAR     47  30  51 W7        30.02R
WALNUT RIDGE   CLEAR     46  25  42 W6        29.98R
BLYTHEVILLE    CLEAR     50  37  61 SW7       29.98R
$$

ARZ022-023-033-042-044-250300-
CENTRAL ARKANSAS

CITY           SKY/WX    TMP DP  RH WIND       PRES   REMARKS
LITTLE ROCK    CLEAR     45  28  51 SW3       30.04R
N LITTLE ROCK  CLEAR     49  28  42 W6        30.04R
JACKSONVILLE   CLEAR     46  27  47 W8        30.03R
HOT SPRINGS    CLEAR     44  31  60 NW3       30.06R
RUSSELLVILLE   CLEAR     45  27  49 W3        30.04R
CLINTON        FAIR      36  32  87 CALM      30.04R
$$

ARZ036-250300-
EAST ARKANSAS

CITY           SKY/WX    TMP DP  RH WIND       PRES   REMARKS
WEST MEMPHIS   CLEAR     45  35  68 SW6       30.00R
$$

ARZ050-053-066-070-073-250300-
SOUTHWEST ARKANSAS

CITY           SKY/WX    TMP DP  RH WIND       PRES   REMARKS
ARKADELPHIA    FAIR      41  38  89 CALM      30.07R
CAMDEN         CLEAR     39  34  81 CALM      30.07R
TEXARKANA      CLEAR     43  32  65 SW6       30.08R
EL DORADO      PTCLDY    40  36  86 CALM      30.08R
DE QUEEN       CLEAR     39  34  82 CALM      30.07R
$$

ARZ056-057-069-250300-
SOUTHEAST ARKANSAS

CITY           SKY/WX    TMP DP  RH WIND       PRES   REMARKS
PINE BLUFF     CLEAR     47  32  56 SW5       30.05R
STUTTGART      CLEAR     45  34  65 SW6       30.04R
MONTICELLO     PTCLDY    46  36  68 W3        30.05R

$$





USA.gov is the U.S. government's official web portal to all federal, state and local government web resources and services.